This is the latest recevied weather packets stored in our database for station/object IK1QAD-3. If no packets are shown the sender has not sent any weather packets the latest 10 day(s).
| Time | Temp. | Humidity | Pressure | Rain* | Wind** | Luminosity | Snow |
|---|---|---|---|---|---|---|---|
| 1778034218 | 12.78° C | 92% | 1008.4 hPa | 0 mm | - | - | - |
| 1778033911 | 12.78° C | 92% | 1008.5 hPa | 0 mm | - | - | - |
| 1778033609 | 12.78° C | 92% | 1008.5 hPa | 0 mm | - | - | - |
| 1778033321 | 12.78° C | 92% | 1008.5 hPa | 0 mm | - | - | - |
| 1778033018 | 12.78° C | 93% | 1008.6 hPa | 0 mm | - | - | - |
| 1778032717 | 12.78° C | 92% | 1008.7 hPa | 0 mm | - | - | - |
| 1778032410 | 12.78° C | 92% | 1008.9 hPa | 0 mm | - | - | - |
| 1778032106 | 13.33° C | 91% | 1009 hPa | 0 mm | - | - | - |
| 1778031819 | 13.33° C | 91% | 1009.1 hPa | 0 mm | - | - | - |
| 1778031515 | 13.33° C | 91% | 1009.2 hPa | 0 mm | - | - | - |
| 1778031210 | 13.89° C | 90% | 1009.3 hPa | 0 mm | - | - | - |
| 1778030906 | 13.89° C | 90% | 1009.2 hPa | 0 mm | - | - | - |
| 1778030624 | 13.89° C | 91% | 1009 hPa | 0 mm | - | - | - |
| 1778030316 | 13.89° C | 91% | 1009.2 hPa | 0 mm | - | - | - |
| 1778030015 | 13.89° C | 91% | 1009.3 hPa | 1.02 mm | - | - | - |
| 1778029712 | 13.89° C | 91% | 1009.3 hPa | 2.03 mm | - | - | - |
| 1778029406 | 13.89° C | 92% | 1009.2 hPa | 3.05 mm | - | - | - |
| 1778029106 | 13.89° C | 92% | 1009.3 hPa | 3.05 mm | - | - | - |
| 1778028821 | 13.89° C | 92% | 1009.4 hPa | 3.05 mm | - | - | - |
| 1778028518 | 13.89° C | 92% | 1009.5 hPa | 4.06 mm | - | - | - |
| 1778028219 | 13.89° C | 93% | 1009.6 hPa | 6.1 mm | - | - | - |
| 1778027913 | 13.89° C | 93% | 1009.6 hPa | 7.87 mm | - | - | - |
| 1778027613 | 13.89° C | 93% | 1009.6 hPa | 8.89 mm | - | - | - |
| 1778027305 | 13.89° C | 92% | 1009.6 hPa | 8.89 mm | - | - | - |
| 1778027023 | 13.89° C | 92% | 1009.8 hPa | 8.89 mm | - | - | - |
* Rain latest hour (hover to see other rain measurements)
** Current wind speed in m/s (hover to see current wind gust speed)